TimeEDT,TemperatureF,Dew PointF,Humidity,Sea Level PressureIn,VisibilityMPH,Wind Direction,Wind SpeedMPH,Gust SpeedMPH,PrecipitationIn,Events,Conditions,WindDirDegrees,DateUTC
12:51 AM,35.1,19.9,54,29.93,10.0,NW,6.9,-,N/A,,Clear,320,2013-03-24 04:51:00
1:51 AM,35.1,19.0,52,29.92,10.0,NW,8.1,-,N/A,,Clear,320,2013-03-24 05:51:00
2:51 AM,34.0,18.0,52,29.90,10.0,NNW,3.5,-,N/A,,Clear,340,2013-03-24 06:51:00
3:51 AM,33.1,19.0,56,29.91,10.0,West,4.6,-,N/A,,Clear,270,2013-03-24 07:51:00
4:51 AM,32.0,19.0,59,29.92,10.0,West,5.8,-,N/A,,Clear,260,2013-03-24 08:51:00
5:51 AM,32.0,19.0,59,29.92,10.0,West,6.9,-,N/A,,Clear,280,2013-03-24 09:51:00
6:51 AM,30.9,19.0,61,29.92,10.0,West,5.8,-,N/A,,Clear,280,2013-03-24 10:51:00
7:51 AM,33.1,19.9,59,29.94,10.0,WNW,6.9,-,N/A,,Clear,290,2013-03-24 11:51:00
8:51 AM,36.0,21.0,55,29.94,10.0,NNW,10.4,-,N/A,,Clear,330,2013-03-24 12:51:00
9:51 AM,37.9,21.0,51,29.92,10.0,NW,11.5,19.6,N/A,,Clear,320,2013-03-24 13:51:00
10:51 AM,39.9,21.0,47,29.91,10.0,NNW,11.5,18.4,N/A,,Clear,330,2013-03-24 14:51:00
11:51 AM,42.1,23.0,47,29.87,10.0,NNW,9.2,-,N/A,,Clear,330,2013-03-24 15:51:00
12:51 PM,44.1,23.0,43,29.83,10.0,NNW,11.5,17.3,N/A,,Clear,340,2013-03-24 16:51:00
1:51 PM,45.0,23.0,42,29.81,10.0,NW,12.7,-,N/A,,Clear,320,2013-03-24 17:51:00
2:51 PM,46.9,23.0,39,29.75,10.0,North,5.8,-,N/A,,Clear,10,2013-03-24 18:51:00
3:51 PM,46.0,21.0,37,29.73,10.0,Variable,6.9,-,N/A,,Clear,0,2013-03-24 19:51:00
4:51 PM,46.0,21.0,37,29.72,10.0,North,9.2,-,N/A,,Clear,10,2013-03-24 20:51:00
5:51 PM,45.0,21.0,39,29.72,10.0,North,11.5,17.3,N/A,,Clear,360,2013-03-24 21:51:00
6:51 PM,44.1,21.0,40,29.71,10.0,North,8.1,-,N/A,,Clear,10,2013-03-24 22:51:00
7:51 PM,44.1,21.0,40,29.75,10.0,NE,5.8,-,N/A,,Clear,40,2013-03-24 23:51:00
8:51 PM,41.0,27.0,57,29.75,10.0,South,5.8,-,N/A,,Clear,190,2013-03-25 00:51:00
9:51 PM,39.9,28.0,63,29.76,10.0,SW,5.8,-,N/A,,Clear,220,2013-03-25 01:51:00
10:51 PM,39.0,28.0,65,29.75,10.0,SSW,4.6,-,N/A,,Clear,210,2013-03-25 02:51:00
11:51 PM,39.9,27.0,60,29.71,10.0,Calm,Calm,-,N/A,,Clear,0,2013-03-25 03:51:00